TAM3806 SBBR-SBCG

Flight info

Callsign TAM3806
Flight time N/A
Altitude 38000
Route DCT SIREM UM544 VUROB DCT
Aircraft A20N/M-SDE2E3FGHIRWXY/LB1

Departure

Time 2026-05-04 12:55
Airport Presidente Juscelino Kubitschek International Airport (SBBR)

Arrival

Time N/A
Airport Campo Grande Airport (SBCG)
Time Latitude Longitude Altitude Speed Heading
2026-05-04 12:34 -15.86852 -47.91817 3463 ft 0 kts 49°
2026-05-04 12:38 -15.86852 -47.91818 3463 ft 0 kts 49°
2026-05-04 12:40 -15.86852 -47.91817 3463 ft 0 kts 49°
2026-05-04 12:44 -15.86854 -47.91819 3463 ft 1 kts 49°
2026-05-04 12:44 -15.86859 -47.91825 3462 ft 1 kts 34°
2026-05-04 12:44 -15.86870 -47.91831 3462 ft 2 kts
2026-05-04 12:44 -15.86886 -47.91830 3461 ft 3 kts 352°
2026-05-04 12:45 -15.86908 -47.91831 3460 ft 3 kts 40°
2026-05-04 12:45 -15.86915 -47.91840 3461 ft 0 kts 81°
2026-05-04 12:49 -15.86914 -47.91832 3460 ft 3 kts 81°
2026-05-04 12:49 -15.86910 -47.91800 3461 ft 6 kts 83°
2026-05-04 12:49 -15.86905 -47.91752 3462 ft 8 kts 84°
2026-05-04 12:49 -15.86920 -47.91701 3460 ft 8 kts 139°
2026-05-04 12:50 -15.86984 -47.91691 3459 ft 11 kts 176°
2026-05-04 12:50 -15.87076 -47.91685 3456 ft 15 kts 176°
2026-05-04 12:50 -15.87195 -47.91677 3454 ft 19 kts 176°
2026-05-04 12:50 -15.87337 -47.91667 3452 ft 22 kts 176°
2026-05-04 12:51 -15.87498 -47.91657 3448 ft 24 kts 177°
2026-05-04 12:51 -15.87670 -47.91646 3442 ft 22 kts 176°
2026-05-04 12:51 -15.87732 -47.91662 3446 ft 8 kts 234°
2026-05-04 12:51 -15.87740 -47.91723 3446 ft 11 kts 265°
2026-05-04 12:52 -15.87748 -47.91828 3449 ft 18 kts 265°
2026-05-04 12:52 -15.87759 -47.91981 3451 ft 24 kts 265°
2026-05-04 12:52 -15.87771 -47.92173 3456 ft 28 kts 266°
2026-05-04 12:52 -15.87783 -47.92370 3461 ft 27 kts 266°
2026-05-04 12:53 -15.87795 -47.92564 3466 ft 27 kts 266°
2026-05-04 12:53 -15.87808 -47.92753 3471 ft 26 kts 265°
2026-05-04 12:53 -15.87819 -47.92934 3475 ft 25 kts 268°
2026-05-04 12:53 -15.87826 -47.93109 3480 ft 24 kts 267°
2026-05-04 12:54 -15.87839 -47.93276 3483 ft 23 kts 265°
2026-05-04 12:54 -15.87893 -47.93380 3486 ft 9 kts 182°
2026-05-04 12:54 -15.87943 -47.93347 3485 ft 11 kts 129°
2026-05-04 12:54 -15.88001 -47.93271 3484 ft 15 kts 150°
2026-05-04 12:55 -15.88017 -47.93208 3481 ft 27 kts 86°
2026-05-04 12:55 -15.87985 -47.92707 3471 ft 109 kts 85°
2026-05-04 12:55 -15.87921 -47.91684 3504 ft 166 kts 87°
2026-05-04 12:55 -15.87832 -47.90460 4289 ft 169 kts 86°
2026-05-04 12:56 -15.87751 -47.89276 5321 ft 164 kts 84°
2026-05-04 12:56 -15.87670 -47.88050 6031 ft 178 kts 84°
2026-05-04 12:56 -15.87577 -47.86694 6502 ft 199 kts 83°
2026-05-04 12:56 -15.87473 -47.85181 6894 ft 224 kts 84°
2026-05-04 12:57 -15.87361 -47.83483 7380 ft 246 kts 87°
2026-05-04 12:57 -15.87681 -47.81649 7797 ft 272 kts 111°
2026-05-04 12:57 -15.88843 -47.80041 8569 ft 287 kts 137°
2026-05-04 12:57 -15.90616 -47.79054 9004 ft 294 kts 162°
2026-05-04 12:58 -15.92667 -47.78923 9175 ft 301 kts 188°
2026-05-04 12:58 -15.94632 -47.79699 9279 ft 306 kts 214°
2026-05-04 12:58 -15.96109 -47.81250 9391 ft 306 kts 239°
2026-05-04 12:58 -15.97106 -47.83218 9731 ft 308 kts 246°
2026-05-04 12:59 -15.98073 -47.85211 10617 ft 307 kts 243°
2026-05-04 12:59 -15.99179 -47.87185 11030 ft 327 kts 239°
2026-05-04 12:59 -16.00499 -47.89223 11268 ft 350 kts 235°
2026-05-04 12:59 -16.01952 -47.91285 11732 ft 361 kts 233°
2026-05-04 13:00 -16.03470 -47.93370 12437 ft 363 kts 233°
2026-05-04 13:00 -16.05015 -47.95478 13121 ft 368 kts 233°
2026-05-04 13:00 -16.06574 -47.97607 13756 ft 372 kts 233°
2026-05-04 13:00 -16.08150 -47.99768 14329 ft 375 kts 233°
2026-05-04 13:01 -16.09703 -48.01904 14974 ft 375 kts 233°
2026-05-04 13:01 -16.11277 -48.04072 15637 ft 375 kts 233°
2026-05-04 13:01 -16.12852 -48.06245 16267 ft 377 kts 233°
2026-05-04 13:01 -16.14438 -48.08433 16886 ft 378 kts 233°
2026-05-04 13:02 -16.16025 -48.10624 17519 ft 379 kts 232°
2026-05-04 13:02 -16.17080 -48.12079 17924 ft 380 kts 232°
2026-05-04 13:02 -16.18674 -48.14278 18515 ft 382 kts 232°
2026-05-04 13:02 -16.20802 -48.17215 19173 ft 384 kts 232°
2026-05-04 13:03 -16.21894 -48.18722 19512 ft 386 kts 232°
2026-05-04 13:03 -16.23516 -48.20962 20012 ft 388 kts 232°
2026-05-04 13:03 -16.25129 -48.23191 20507 ft 390 kts 232°
2026-05-04 13:03 -16.26766 -48.25456 21031 ft 392 kts 232°
2026-05-04 13:04 -16.28947 -48.28473 21703 ft 394 kts 232°
2026-05-04 13:04 -16.30070 -48.30026 22008 ft 397 kts 232°
2026-05-04 13:04 -16.31715 -48.32302 22487 ft 399 kts 232°
2026-05-04 13:04 -16.33395 -48.34627 22960 ft 402 kts 232°
2026-05-04 13:05 -16.35088 -48.36970 23430 ft 405 kts 232°
2026-05-04 13:05 -16.36776 -48.39307 23887 ft 407 kts 232°
2026-05-04 13:05 -16.38480 -48.41669 24273 ft 409 kts 233°
2026-05-04 13:05 -16.40198 -48.44049 24685 ft 410 kts 233°
2026-05-04 13:06 -16.41905 -48.46416 25079 ft 412 kts 233°
2026-05-04 13:06 -16.43632 -48.48812 25452 ft 415 kts 233°
2026-05-04 13:06 -16.45372 -48.51226 25842 ft 416 kts 233°
2026-05-04 13:06 -16.47117 -48.53649 26224 ft 418 kts 233°
2026-05-04 13:07 -16.48852 -48.56057 26598 ft 420 kts 233°
2026-05-04 13:07 -16.50609 -48.58499 26984 ft 421 kts 233°
2026-05-04 13:07 -16.52374 -48.60950 27366 ft 423 kts 233°
2026-05-04 13:07 -16.54089 -48.63454 27729 ft 424 kts 237°
2026-05-04 13:08 -16.55550 -48.66134 28084 ft 426 kts 243°
2026-05-04 13:08 -16.56728 -48.68942 28440 ft 427 kts 248°
2026-05-04 13:08 -16.57853 -48.71824 28793 ft 428 kts 247°
2026-05-04 13:08 -16.58991 -48.74708 29118 ft 430 kts 247°
2026-05-04 13:09 -16.60134 -48.77603 29449 ft 431 kts 247°
2026-05-04 13:09 -16.61267 -48.80470 29788 ft 433 kts 247°
2026-05-04 13:09 -16.62412 -48.83375 30113 ft 434 kts 247°
2026-05-04 13:09 -16.63569 -48.86312 30429 ft 435 kts 247°
2026-05-04 13:10 -16.64721 -48.89238 30737 ft 436 kts 247°
2026-05-04 13:10 -16.65873 -48.92166 31051 ft 437 kts 247°
2026-05-04 13:10 -16.67013 -48.95068 31402 ft 437 kts 247°
2026-05-04 13:10 -16.68170 -48.98011 31823 ft 435 kts 247°
2026-05-04 13:11 -16.69310 -49.00915 32264 ft 432 kts 247°
2026-05-04 13:11 -16.70449 -49.03817 32699 ft 429 kts 247°
2026-05-04 13:11 -16.71560 -49.06649 33118 ft 427 kts 247°
2026-05-04 13:11 -16.72685 -49.09515 33529 ft 424 kts 247°
2026-05-04 13:12 -16.73802 -49.12365 33918 ft 422 kts 247°
2026-05-04 13:12 -16.74914 -49.15205 34280 ft 420 kts 247°
2026-05-04 13:12 -16.76019 -49.18025 34586 ft 418 kts 247°
2026-05-04 13:12 -16.77115 -49.20825 34855 ft 417 kts 247°
2026-05-04 13:13 -16.78206 -49.23612 35135 ft 416 kts 247°
2026-05-04 13:13 -16.79291 -49.26387 35393 ft 415 kts 248°
2026-05-04 13:13 -16.80376 -49.29161 35642 ft 414 kts 248°
2026-05-04 13:13 -16.81462 -49.31942 35900 ft 413 kts 248°
2026-05-04 13:14 -16.82550 -49.34727 36157 ft 411 kts 248°
2026-05-04 13:14 -16.83622 -49.37471 36392 ft 410 kts 248°
2026-05-04 13:14 -16.84703 -49.40240 36611 ft 409 kts 248°
2026-05-04 13:14 -16.85776 -49.42992 36828 ft 408 kts 248°
2026-05-04 13:15 -16.86849 -49.45744 37045 ft 408 kts 248°
2026-05-04 13:15 -16.87914 -49.48478 37250 ft 407 kts 248°
2026-05-04 13:15 -16.88974 -49.51197 37453 ft 406 kts 248°
2026-05-04 13:15 -16.90043 -49.53944 37660 ft 405 kts 248°
2026-05-04 13:16 -16.91089 -49.56632 37850 ft 404 kts 248°
2026-05-04 13:16 -16.92169 -49.59359 38043 ft 404 kts 246°
2026-05-04 13:16 -16.93400 -49.61970 38104 ft 403 kts 242°
2026-05-04 13:17 -16.96463 -49.66898 38101 ft 403 kts 234°
2026-05-04 13:17 -16.99892 -49.71523 38097 ft 404 kts 234°
2026-05-04 13:18 -17.03317 -49.76182 38110 ft 404 kts 234°
2026-05-04 13:18 -17.06136 -49.80047 38129 ft 403 kts 234°
2026-05-04 13:19 -17.10073 -49.85512 38152 ft 403 kts 234°
2026-05-04 13:19 -17.13453 -49.90199 38173 ft 403 kts 234°
2026-05-04 13:20 -17.16827 -49.94874 38186 ft 403 kts 234°
2026-05-04 13:20 -17.20183 -49.99527 38196 ft 402 kts 234°
2026-05-04 13:21 -17.23565 -50.04218 38198 ft 402 kts 234°
2026-05-04 13:21 -17.26374 -50.08119 38196 ft 402 kts 234°